Torna al catalogo

ATLAS AGENA R/B(2)

AttivoMEO
NORAD 15422·ROCKET BODY·🇺🇸 United States

Lanciato May 23, 1977 da Cape Canaveral Space Force Station

Loading…

Prossimi Passaggi (prossime 24 ore)

TLE

AggiornatoSource: Space-Track

Epoca: Sep 14, 2026, 10:18 UTC

1 15422U 77038C   26257.42919015 -.00000017  00000-0  00000-0 0  9991
2 15422   6.1879 330.4811 1445229 182.3362 176.8009  1.02334944 27155

Traccia ATLAS AGENA R/B(2) in tempo reale con AllMySat

Download on the App Store